Date String (YYYY-MM-DD hh:mm:ss) UTC,Instrument flags,absolute air pressure of the measurement (hPa),sample flow rate (lpm),inlet stack bypass flow (lpm),air temperature of the measurement (°C),ambient temperature measured by the external sensor (°C),aerosol sample conditioner tube jacket temperature (°C),OPC LED temperature (°C),internal box temperature (°C),relative humidity of the measurement (%),span deviation,mass concentration of particles derived from Lorenz-Mie calculation of OPC scattering (μg/m³),mass concentration of particles derived from Lorenz-Mie calculation of OPC scattering (μg/m³),mass concentration of particles derived from Lorenz-Mie calculation of OPC scattering (μg/m³)
DateTimeUTC,F1_M11,P_M11,Q1_M11,Q2_M11,T1_M11,T2_M11,T3_M11,T4_M11,T5_M11,U1_M11,ZSPAN_M11,X2_M11,X0_M11,X1_M11
2023-06-08 02:00:00,SystemResetWarning,0828.4,5.00,000.00,029.7,028.1,000.0,038.2,031.2,20.0,0000.0,0001.48,0002.99,0001.02
2023-06-08 02:01:00,SystemResetWarning,0828.4,5.00,000.00,029.7,028.2,000.0,038.3,031.2,20.0,0000.0,0001.36,0002.60,0001.00
2023-06-08 02:02:00,SystemResetWarning,0828.4,5.00,000.00,029.7,028.2,000.0,038.3,031.2,20.1,0000.0,0001.32,0002.45,0000.99
2023-06-08 02:03:00,SystemResetWarning,0828.4,5.00,000.00,029.8,028.2,000.0,038.3,031.2,20.2,0000.0,0001.31,0002.49,0000.98
2023-06-08 02:04:00,SystemResetWarning,0828.4,5.00,000.00,029.8,028.2,000.0,038.3,031.2,20.2,0000.0,0001.32,0002.37,0000.99
2023-06-08 02:05:00,SystemResetWarning,0828.4,5.00,000.00,029.8,028.2,000.0,038.3,031.3,20.2,0000.0,0001.28,0002.27,0000.98
2023-06-08 02:06:00,SystemResetWarning,0828.5,5.00,000.00,029.8,028.3,000.0,038.3,031.3,20.1,0000.0,0001.27,0002.28,0000.96
2023-06-08 02:07:00,SystemResetWarning,0828.5,5.00,000.00,029.8,028.3,000.0,038.3,031.3,19.9,0000.0,0001.28,0002.29,0000.96
2023-06-08 02:08:00,SystemResetWarning,0828.6,5.00,000.00,029.8,028.3,000.0,038.3,031.3,19.7,0000.0,0001.27,0002.34,0000.96
2023-06-08 02:09:00,SystemResetWarning,0828.6,5.00,000.00,029.8,028.3,000.0,038.3,031.3,19.3,0000.0,0001.26,0002.23,0000.95
2023-06-08 02:10:00,SystemResetWarning,0828.7,5.00,000.00,029.8,028.3,000.0,038.4,031.3,19.5,0000.0,0001.22,0001.91,0000.94
2023-06-08 02:11:00,SystemResetWarning,0828.7,5.00,000.00,029.9,028.3,000.0,038.4,031.3,19.8,0000.0,0001.16,0001.75,0000.93
2023-06-08 02:12:00,SystemResetWarning,0828.7,5.01,000.00,029.9,028.4,000.0,038.4,031.4,21.1,0000.0,0001.20,0001.83,0000.93
2023-06-08 02:13:00,SystemResetWarning,0828.7,5.00,000.00,029.9,028.4,000.0,038.4,031.4,21.5,0000.0,0001.25,0001.96,0000.95
2023-06-08 02:14:00,SystemResetWarning,0828.8,5.00,000.00,029.9,028.4,000.0,038.4,031.4,21.7,0000.0,0001.30,0002.07,0000.98
2023-06-08 02:15:00,SystemResetWarning,0828.7,5.00,000.00,029.9,028.4,000.0,038.4,031.4,21.7,0000.0,0001.33,0002.15,0001.00
2023-06-08 02:16:00,SystemResetWarning,0828.8,4.99,000.00,029.9,028.5,000.0,038.4,031.4,21.8,0000.0,0001.39,0002.29,0001.02
2023-06-08 02:17:00,SystemResetWarning,0828.8,5.00,000.00,030.0,028.5,000.0,038.4,031.4,21.9,0000.0,0001.42,0002.43,0001.05
2023-06-08 02:18:00,SystemResetWarning,0828.8,5.01,000.00,030.0,028.5,000.0,038.5,031.5,21.3,0000.0,0001.46,0002.67,0001.06
2023-06-08 02:19:00,SystemResetWarning,0828.9,4.99,000.00,030.0,028.5,000.0,038.5,031.5,20.5,0000.0,0001.49,0002.70,0001.07
2023-06-08 02:20:00,SystemResetWarning,0829.0,5.00,000.00,030.0,028.5,000.0,038.5,031.5,21.9,0000.0,0001.53,0002.77,0001.10
2023-06-08 02:21:00,SystemResetWarning,0829.0,5.01,000.00,030.0,028.5,000.0,038.5,031.5,22.1,0000.0,0001.59,0002.96,0001.12
2023-06-08 02:22:00,SystemResetWarning,0829.0,5.01,000.00,030.0,028.5,000.0,038.5,031.5,22.7,0000.0,0001.65,0003.22,0001.15
2023-06-08 02:23:00,SystemResetWarning,0828.9,4.99,000.00,030.0,028.5,000.0,038.5,031.5,22.9,0000.0,0001.68,0003.30,0001.17
2023-06-08 02:24:00,SystemResetWarning,0829.0,5.00,000.00,030.1,028.6,000.0,038.5,031.5,22.6,0000.0,0001.70,0003.28,0001.18
2023-06-08 02:25:00,SystemResetWarning,0829.0,5.00,000.00,030.1,028.6,000.0,038.6,031.6,22.5,0000.0,0001.70,0003.26,0001.19
2023-06-08 02:26:00,SystemResetWarning,0829.0,5.00,000.00,030.1,028.3,000.0,038.6,031.5,22.4,0000.0,0001.70,0003.39,0001.19
2023-06-08 02:27:00,SystemResetWarning,0829.0,5.00,000.00,030.1,026.1,000.0,038.5,031.5,22.0,0000.0,0001.68,0003.40,0001.19
2023-06-08 02:28:00,SystemResetWarning,0829.0,5.01,000.00,030.0,024.8,000.0,038.4,031.5,21.8,0000.0,0001.75,0003.68,0001.19
2023-06-08 02:29:00,SystemResetWarning,0828.9,5.01,000.00,029.9,024.9,000.0,038.4,031.1,21.9,0000.0,0001.80,0003.61,0001.20
2023-06-08 02:30:00,SystemResetWarning,0828.9,5.00,000.00,029.8,025.3,000.0,038.4,030.9,22.1,0000.0,0001.80,0003.57,0001.21
2023-06-08 02:31:00,SystemResetWarning,0828.9,5.00,000.00,029.7,025.7,000.0,038.4,030.8,22.0,0000.0,0001.79,0004.85,0001.21
2023-06-08 02:32:00,SystemResetWarning,0828.9,5.00,000.00,029.7,026.1,000.0,038.4,030.8,21.9,0000.0,0001.77,0004.76,0001.21
2023-06-08 02:33:00,SystemResetWarning,0829.0,4.99,000.00,029.7,026.4,000.0,038.3,030.8,22.0,0000.0,0001.77,0005.05,0001.21
2023-06-08 02:34:00,SystemResetWarning,0829.0,4.99,000.00,029.6,026.8,000.0,038.3,030.9,22.0,0000.0,0001.78,0005.60,0001.21
2023-06-08 02:35:00,SystemResetWarning,0829.1,5.00,000.00,029.6,027.0,000.0,038.3,030.9,22.0,0000.0,0001.80,0005.79,0001.21
2023-06-08 02:36:00,SystemResetWarning,0829.1,5.00,000.00,029.6,027.3,000.0,038.3,031.0,22.1,0000.0,0001.78,0005.74,0001.20
2023-06-08 02:37:00,SystemResetWarning,0829.1,5.01,000.00,029.6,027.5,000.0,038.3,031.0,22.2,0000.0,0001.79,0005.58,0001.20
2023-06-08 02:38:00,SystemResetWarning,0829.1,5.00,000.00,029.6,027.6,000.0,038.3,031.1,22.2,0000.0,0001.80,0005.97,0001.20
2023-06-08 02:39:00,SystemResetWarning,0829.1,4.99,000.00,029.6,027.8,000.0,038.3,031.1,22.6,0000.0,0001.77,0005.88,0001.18
2023-06-08 02:40:00,SystemResetWarning,0829.1,4.99,000.00,029.7,027.9,000.0,038.3,031.1,22.7,0000.0,0001.76,0005.88,0001.18
2023-06-08 02:41:00,SystemResetWarning,0829.1,4.99,000.00,029.7,028.0,000.0,038.3,031.1,22.6,0000.0,0001.75,0005.85,0001.19
2023-06-08 02:42:00,SystemResetWarning,0829.1,5.00,000.00,029.7,028.0,000.0,038.3,031.1,22.7,0000.0,0001.77,0004.96,0001.19
2023-06-08 02:43:00,SystemResetWarning,0829.2,5.00,000.00,029.7,028.1,000.0,038.3,031.2,23.0,0000.0,0001.78,0004.70,0001.19
2023-06-08 02:44:00,SystemResetWarning,0829.2,5.00,000.00,029.7,028.1,000.0,038.3,031.2,22.0,0000.0,0001.78,0004.57,0001.19
2023-06-08 02:45:00,SystemResetWarning,0829.2,5.00,000.00,029.7,028.2,000.0,038.3,031.2,21.7,0000.0,0001.79,0003.85,0001.20
2023-06-08 02:46:00,SystemResetWarning,0829.3,5.00,000.00,029.7,028.2,000.0,038.3,031.2,21.9,0000.0,0001.75,0003.64,0001.20
2023-06-08 02:47:00,SystemResetWarning,0829.3,4.99,000.00,029.8,028.3,000.0,038.3,031.3,22.4,0000.0,0001.75,0003.73,0001.20
2023-06-08 02:48:00,SystemResetWarning,0829.4,4.99,000.00,029.8,028.3,000.0,038.3,031.3,22.3,0000.0,0001.81,0004.65,0001.19
2023-06-08 02:49:00,SystemResetWarning,0829.4,5.00,000.00,029.8,028.3,000.0,038.3,031.3,21.7,0000.0,0001.79,0004.50,0001.19
2023-06-08 02:50:00,SystemResetWarning,0829.3,5.00,000.00,029.8,028.3,000.0,038.3,031.3,21.5,0000.0,0001.77,0004.34,0001.19
2023-06-08 02:51:00,SystemResetWarning,0829.4,4.99,000.00,029.8,028.4,000.0,038.3,031.3,21.7,0000.0,0001.72,0004.15,0001.17
2023-06-08 02:52:00,SystemResetWarning,0829.3,5.00,000.00,029.8,028.4,000.0,038.4,031.4,21.8,0000.0,0001.72,0004.15,0001.17
2023-06-08 02:53:00,SystemResetWarning,0829.3,5.00,000.00,029.9,028.4,000.0,038.4,031.4,21.8,0000.0,0001.66,0003.93,0001.16
2023-06-08 02:54:00,SystemResetWarning,0829.3,5.00,000.00,029.9,028.4,000.0,038.4,031.4,21.8,0000.0,0001.63,0003.85,0001.14
2023-06-08 02:55:00,SystemResetWarning,0829.3,5.00,000.00,029.9,028.4,000.0,038.4,031.4,21.8,0000.0,0001.62,0003.77,0001.15
2023-06-08 02:56:00,SystemResetWarning,0829.4,5.01,000.00,029.9,028.4,000.0,038.4,031.4,21.5,0000.0,0001.57,0003.68,0001.14
2023-06-08 02:57:00,SystemResetWarning,0829.3,5.00,000.00,029.9,028.4,000.0,038.4,031.4,21.5,0000.0,0001.57,0003.70,0001.14
2023-06-08 02:58:00,SystemResetWarning,0829.3,5.00,000.00,029.9,028.5,000.0,038.4,031.4,21.6,0000.0,0001.54,0003.53,0001.12
2023-06-08 02:59:00,SystemResetWarning,0829.3,5.00,000.00,030.0,028.5,000.0,038.4,031.4,21.7,0000.0,0001.49,0002.88,0001.12
